contact:dominique.lefevre@mio.osupytheas.fr, maurice.libes@osupytheas.fr, didier.mallarino@osupytheas.fr
Project:EMSO http://www.emso-fr.org/EMSO-France
Depth: 2436.0 m
Title:EMSO Ligure Ouest : Data MII capteur AQUADOPP
Date,Latitude,Longitude,X_East,Y_North,Z_Up,Amplitude_X,Amplitude_Y,Amplitude_Z,Batterie,SoundSpeed,Heading,Pitch,Roll,Pressure,TIS,Speed,Direction
, degrees North, degrees East, m.s-1, m.s-1,m.s-1, 1, 1, 1, Volt, m.s-1, degree, degree, degree, dbar, degree_C, m.s-1, degree
2019-10-12T00:04:04,42.805,6.029,-0.05,0.019,-0.06,100.0,109.0,98.0,13.4,1505.1,326.1,-0.8,1.9,2470.465,13.27,0.053,290.8
2019-10-12T00:07:05,42.805,6.029,-0.027,0.023,-0.048,101.0,109.0,97.0,13.3,1505.2,326.5,-0.7,1.8,2470.331,13.29,0.035,310.4
2019-10-12T00:10:06,42.805,6.029,-0.013,0.04,-0.012,100.0,107.0,97.0,13.4,1505.3,325.7,-0.7,1.8,2470.135,13.31,0.042,342.0
2019-10-12T00:13:07,42.805,6.029,-0.05,0.008,-0.04,99.0,108.0,102.0,13.4,1505.3,322.8,-0.7,1.8,2470.084,13.31,0.05,279.1
2019-10-12T00:16:08,42.805,6.029,-0.018,0.021,-0.037,100.0,108.0,98.0,13.4,1505.3,325.5,-0.7,1.8,2470.012,13.32,0.027,319.4
2019-10-12T00:19:09,42.805,6.029,-0.018,0.013,-0.045,100.0,107.0,97.0,13.4,1505.3,328.4,-0.7,1.8,2469.919,13.32,0.022,305.8
2019-10-12T00:22:10,42.805,6.029,-0.023,0.019,-0.032,102.0,107.0,97.0,13.3,1505.3,326.0,-0.7,1.9,2469.881,13.33,0.029,309.6
2019-10-12T00:25:11,42.805,6.029,-0.015,0.02,-0.013,100.0,109.0,97.0,13.4,1505.3,323.7,-0.7,1.8,2469.85,13.33,0.025,323.1
2019-10-12T00:28:12,42.805,6.029,-0.033,0.028,-0.023,99.0,107.0,98.0,13.4,1505.3,327.7,-0.7,1.8,2469.793,13.33,0.043,310.3
2019-10-12T00:31:13,42.805,6.029,-0.046,0.018,-0.051,100.0,108.0,98.0,13.3,1505.3,323.9,-0.7,1.8,2469.863,13.33,0.049,291.4
2019-10-12T00:34:14,42.805,6.029,-0.035,0.015,-0.011,100.0,108.0,98.0,13.4,1505.3,324.8,-0.7,1.8,2469.802,13.33,0.038,293.2
2019-10-12T00:37:15,42.805,6.029,-0.032,0.003,-0.038,100.0,110.0,98.0,13.4,1505.3,325.7,-0.7,1.8,2469.879,13.33,0.032,275.4
2019-10-12T00:40:16,42.805,6.029,-0.007,0.022,-0.01,98.0,108.0,98.0,13.3,1505.3,327.0,-0.7,1.8,2469.806,13.33,0.023,342.4
2019-10-12T00:43:17,42.805,6.029,-0.043,0.018,-0.057,99.0,108.0,97.0,13.4,1505.4,325.7,-0.7,1.8,2469.838,13.34,0.046,292.7
2019-10-12T00:46:18,42.805,6.029,-0.024,0.017,-0.058,102.0,108.0,98.0,13.4,1505.4,326.4,-0.7,1.8,2469.826,13.34,0.029,305.3
2019-10-12T00:49:19,42.805,6.029,-0.018,0.02,-0.059,100.0,108.0,98.0,13.4,1505.4,328.2,-0.7,1.8,2469.824,13.34,0.026,318.0
2019-10-12T00:52:20,42.805,6.029,-0.022,0.009,-0.01,100.0,108.0,98.0,13.4,1505.4,326.0,-0.7,1.8,2469.832,13.34,0.023,292.2
2019-10-12T00:55:21,42.805,6.029,-0.036,0.02,-0.049,100.0,108.0,97.0,13.4,1505.4,328.5,-0.7,1.8,2469.86,13.34,0.041,299.1
2019-10-12T00:58:22,42.805,6.029,-0.025,0.041,-0.007,99.0,108.0,97.0,13.4,1505.4,324.4,-0.7,1.8,2469.83,13.34,0.048,328.6
2019-10-12T01:01:23,42.805,6.029,-0.022,0.032,-0.033,100.0,109.0,98.0,13.4,1505.4,328.5,-0.7,1.8,2469.828,13.34,0.038,325.5
2019-10-12T01:04:24,42.805,6.029,-0.007,0.016,-0.061,99.0,109.0,97.0,13.3,1505.4,327.3,-0.7,1.8,2469.858,13.34,0.017,336.4
2019-10-12T01:07:25,42.805,6.029,-0.033,0.005,-0.08,99.0,107.0,98.0,13.3,1505.4,326.0,-0.7,1.8,2469.862,13.34,0.033,278.6
2019-10-12T01:10:26,42.805,6.029,-0.011,0.014,0.013,100.0,108.0,98.0,13.3,1505.4,325.0,-0.7,1.8,2469.849,13.34,0.017,321.8
2019-10-12T01:13:27,42.805,6.029,-0.021,0.011,-0.036,101.0,107.0,98.0,13.3,1505.4,325.7,-0.7,1.9,2469.87,13.34,0.023,297.6
2019-10-12T01:16:28,42.805,6.029,-0.042,0.017,-0.056,101.0,108.0,97.0,13.3,1505.4,323.0,-0.7,1.9,2469.888,13.34,0.045,292.0
2019-10-12T01:19:29,42.805,6.029,-0.015,0.006,-0.017,98.0,109.0,98.0,13.4,1505.4,325.4,-0.7,1.8,2469.882,13.34,0.016,291.8
2019-10-12T01:22:30,42.805,6.029,0.011,0.028,-0.039,101.0,109.0,98.0,13.4,1505.4,328.2,-0.7,1.8,2469.844,13.34,0.03,21.4
2019-10-12T01:25:31,42.805,6.029,-0.02,0.008,-0.057,99.0,109.0,97.0,13.4,1505.4,328.5,-0.7,1.9,2469.905,13.34,0.021,291.8
2019-10-12T01:28:32,42.805,6.029,-0.035,0.008,-0.055,98.0,109.0,98.0,13.4,1505.4,323.8,-0.7,1.8,2469.885,13.34,0.035,282.9
2019-10-12T01:31:33,42.805,6.029,-0.029,0.026,-0.022,100.0,108.0,97.0,13.4,1505.4,325.4,-0.7,1.8,2469.882,13.34,0.038,311.9
2019-10-12T01:34:34,42.805,6.029,-0.032,0.013,-0.037,100.0,107.0,98.0,13.4,1505.4,324.7,-0.7,1.8,2469.904,13.34,0.034,292.1
2019-10-12T01:37:35,42.805,6.029,-0.002,0.022,-0.007,100.0,107.0,98.0,13.3,1505.4,326.0,-0.7,1.8,2469.892,13.34,0.022,354.8
2019-10-12T01:40:36,42.805,6.029,-0.004,0.037,-0.012,101.0,108.0,97.0,13.3,1505.4,326.5,-0.7,1.9,2469.864,13.34,0.037,353.8
2019-10-12T01:43:37,42.805,6.029,-0.033,0.027,-0.024,100.0,107.0,98.0,13.4,1505.4,323.8,-0.7,1.8,2469.899,13.34,0.042,309.3
2019-10-12T01:46:38,42.805,6.029,-0.004,0.019,-0.03,99.0,108.0,98.0,13.4,1505.4,323.2,-0.7,1.8,2469.882,13.34,0.019,348.1
2019-10-12T01:49:39,42.805,6.029,-0.035,0.024,-0.059,102.0,109.0,96.0,13.4,1505.4,327.9,-0.7,1.8,2469.921,13.34,0.042,304.4
2019-10-12T01:52:40,42.805,6.029,-0.022,0.017,-0.021,99.0,108.0,99.0,13.4,1505.4,325.1,-0.7,1.9,2469.907,13.34,0.027,307.7
2019-10-12T01:55:41,42.805,6.029,-0.038,0.029,-0.085,99.0,109.0,97.0,13.3,1505.4,327.0,-0.7,1.8,2469.936,13.34,0.047,307.3
2019-10-12T01:58:42,42.805,6.029,-0.026,0.028,-0.026,100.0,108.0,98.0,13.4,1505.4,322.7,-0.7,1.8,2469.887,13.34,0.038,317.1
2019-10-12T02:01:43,42.805,6.029,0.006,0.008,-0.022,102.0,106.0,98.0,13.4,1505.4,326.3,-0.8,1.8,2469.868,13.34,0.01,36.9
2019-10-12T02:04:44,42.805,6.029,-0.018,0.018,-0.031,100.0,108.0,97.0,13.4,1505.4,327.7,-0.7,1.8,2469.939,13.34,0.025,315.0
2019-10-12T02:07:45,42.805,6.029,-0.006,0.034,-0.023,100.0,108.0,97.0,13.3,1505.4,325.2,-0.7,1.8,2469.898,13.34,0.034,350.0
2019-10-12T02:10:46,42.805,6.029,-0.011,0.012,-0.034,101.0,108.0,98.0,13.3,1505.4,326.7,-0.7,1.8,2469.911,13.34,0.016,317.5
2019-10-12T02:13:47,42.805,6.029,0.013,0.017,-0.031,101.0,109.0,98.0,13.3,1505.4,326.7,-0.7,1.8,2469.943,13.34,0.021,37.4
2019-10-12T02:16:48,42.805,6.029,-0.018,0.029,-0.04,99.0,109.0,97.0,13.3,1505.4,326.5,-0.7,1.8,2469.934,13.34,0.034,328.2
2019-10-12T02:19:49,42.805,6.029,-0.031,0.001,-0.055,99.0,108.0,99.0,13.3,1505.4,325.0,-0.7,1.8,2469.907,13.34,0.031,271.8
2019-10-12T02:22:50,42.805,6.029,-0.033,0.0,-0.049,100.0,108.0,98.0,13.4,1505.4,328.6,-0.7,1.9,2469.923,13.34,0.033,270.0
2019-10-12T02:25:51,42.805,6.029,-0.023,0.023,-0.063,100.0,108.0,98.0,13.3,1505.4,323.6,-0.7,1.9,2469.929,13.34,0.032,315.0
2019-10-12T02:28:52,42.805,6.029,-0.014,0.003,-0.023,100.0,108.0,98.0,13.3,1505.4,324.3,-0.7,1.9,2469.917,13.34,0.014,282.1
2019-10-12T02:31:53,42.805,6.029,-0.03,0.015,-0.018,100.0,108.0,98.0,13.3,1505.4,324.1,-0.7,1.9,2469.899,13.34,0.033,296.6
2019-10-12T02:34:54,42.805,6.029,-0.017,0.029,-0.057,100.0,107.0,99.0,13.3,1505.4,325.1,-0.7,1.8,2469.892,13.34,0.033,329.6
2019-10-12T02:37:55,42.805,6.029,-0.058,0.03,-0.076,101.0,108.0,96.0,13.4,1505.4,326.9,-0.7,1.8,2469.992,13.34,0.065,297.4
2019-10-12T02:40:56,42.805,6.029,-0.025,0.031,-0.037,100.0,108.0,98.0,13.3,1505.4,325.7,-0.7,1.9,2469.97,13.34,0.039,321.1
2019-10-12T02:43:57,42.805,6.029,-0.052,-0.005,-0.038,100.0,109.0,97.0,13.3,1505.4,325.6,-0.7,1.8,2469.951,13.34,0.052,264.5
2019-10-12T02:46:58,42.805,6.029,-0.024,0.022,-0.038,100.0,107.0,98.0,13.3,1505.4,325.6,-0.7,1.8,2469.937,13.34,0.032,312.5
2019-10-12T02:49:59,42.805,6.029,-0.014,0.012,-0.003,101.0,108.0,98.0,13.4,1505.4,326.1,-0.8,1.8,2469.989,13.34,0.018,310.6
2019-10-12T02:53:00,42.805,6.029,-0.056,0.034,-0.045,100.0,107.0,98.0,13.3,1505.4,327.6,-0.7,1.8,2469.95,13.34,0.065,301.3
2019-10-12T02:56:01,42.805,6.029,-0.029,0.018,-0.006,101.0,108.0,97.0,13.3,1505.4,327.7,-0.7,1.8,2469.972,13.34,0.034,301.8
2019-10-12T02:59:02,42.805,6.029,-0.035,-0.002,-0.05,100.0,108.0,98.0,13.4,1505.4,324.0,-0.7,1.9,2469.941,13.34,0.035,266.7
2019-10-12T03:02:03,42.805,6.029,-0.037,0.026,-0.061,98.0,108.0,97.0,13.4,1505.4,325.8,-0.7,1.8,2469.989,13.34,0.045,305.1
2019-10-12T03:05:04,42.805,6.029,-0.029,0.031,-0.029,99.0,110.0,98.0,13.3,1505.4,325.8,-0.7,1.8,2469.992,13.34,0.042,316.9
2019-10-12T03:08:05,42.805,6.029,-0.021,0.025,-0.058,99.0,109.0,98.0,13.3,1505.4,325.1,-0.7,1.9,2469.955,13.34,0.032,320.0
2019-10-12T03:11:06,42.805,6.029,-0.02,0.011,-0.019,99.0,108.0,97.0,13.3,1505.4,328.1,-0.7,1.8,2470.01,13.34,0.022,298.8
2019-10-12T03:14:07,42.805,6.029,-0.039,0.017,-0.049,100.0,107.0,98.0,13.4,1505.4,325.5,-0.7,1.9,2469.977,13.34,0.042,293.5
2019-10-12T03:17:08,42.805,6.029,-0.036,0.012,-0.045,101.0,107.0,98.0,13.4,1505.4,324.6,-0.7,1.8,2469.975,13.34,0.037,288.4
2019-10-12T03:20:09,42.805,6.029,-0.036,0.011,-0.052,100.0,106.0,97.0,13.4,1505.4,326.3,-0.7,1.8,2469.965,13.34,0.037,287.0
2019-10-12T03:23:10,42.805,6.029,-0.024,0.026,-0.009,101.0,108.0,98.0,13.4,1505.4,325.2,-0.7,1.8,2469.982,13.34,0.035,317.3
2019-10-12T03:26:11,42.805,6.029,-0.03,0.023,-0.021,100.0,106.0,98.0,13.4,1505.4,325.5,-0.7,1.9,2469.947,13.34,0.037,307.5
2019-10-12T03:29:12,42.805,6.029,-0.074,0.012,-0.057,100.0,107.0,99.0,13.4,1505.4,323.5,-0.7,1.8,2469.959,13.34,0.074,279.2
2019-10-12T03:32:13,42.805,6.029,-0.013,0.025,-0.023,100.0,107.0,99.0,13.3,1505.4,328.7,-0.7,1.9,2469.997,13.34,0.028,332.5
2019-10-12T03:35:14,42.805,6.029,-0.038,0.026,-0.016,101.0,106.0,98.0,13.3,1505.4,325.7,-0.7,1.8,2469.932,13.34,0.046,304.4
2019-10-12T03:38:15,42.805,6.029,-0.019,0.03,-0.025,100.0,105.0,98.0,13.3,1505.4,323.7,-0.7,1.8,2469.962,13.34,0.035,327.7
2019-10-12T03:41:16,42.805,6.029,-0.029,0.029,-0.023,101.0,107.0,97.0,13.3,1505.4,325.2,-0.7,1.8,2469.972,13.34,0.041,315.0
2019-10-12T03:44:17,42.805,6.029,-0.046,0.018,-0.039,101.0,107.0,97.0,13.4,1505.4,326.7,-0.7,1.9,2470.02,13.34,0.049,291.4
2019-10-12T03:47:18,42.805,6.029,-0.053,0.014,-0.055,101.0,105.0,98.0,13.4,1505.4,326.7,-0.7,1.8,2469.953,13.34,0.054,284.8
2019-10-12T03:50:19,42.805,6.029,-0.02,0.027,-0.039,100.0,107.0,99.0,13.3,1505.4,325.9,-0.7,1.8,2469.956,13.34,0.033,323.5
2019-10-12T03:53:20,42.805,6.029,-0.061,0.028,-0.062,100.0,107.0,98.0,13.4,1505.3,327.7,-0.7,1.8,2469.999,13.33,0.067,294.7
2019-10-12T03:56:21,42.805,6.029,-0.035,0.013,-0.066,99.0,108.0,98.0,13.4,1505.3,327.6,-0.7,1.9,2470.046,13.33,0.037,290.4
2019-10-12T03:59:22,42.805,6.029,-0.052,0.005,-0.048,102.0,106.0,98.0,13.4,1505.3,326.6,-0.7,1.8,2469.962,13.33,0.052,275.5
2019-10-12T04:02:23,42.805,6.029,-0.059,0.018,-0.059,100.0,105.0,97.0,13.4,1505.3,328.4,-0.7,1.8,2470.01,13.33,0.061,287.0
2019-10-12T04:05:24,42.805,6.029,-0.02,0.023,-0.02,100.0,107.0,98.0,13.3,1505.3,325.7,-0.7,1.8,2469.99,13.33,0.03,319.0
2019-10-12T04:08:25,42.805,6.029,-0.042,0.037,-0.037,100.0,107.0,97.0,13.3,1505.3,322.8,-0.7,1.9,2470.024,13.33,0.055,311.4
2019-10-12T04:11:26,42.805,6.029,-0.027,0.037,-0.019,101.0,106.0,98.0,13.3,1505.3,324.2,-0.7,1.8,2469.992,13.33,0.045,323.9
2019-10-12T04:14:27,42.805,6.029,-0.052,0.014,-0.082,101.0,106.0,97.0,13.4,1505.3,327.2,-0.7,1.8,2470.014,13.33,0.053,285.1
2019-10-12T04:17:28,42.805,6.029,-0.04,0.025,-0.052,100.0,108.0,97.0,13.4,1505.3,326.2,-0.7,1.8,2470.02,13.33,0.047,302.0
2019-10-12T04:20:29,42.805,6.029,-0.048,0.024,-0.043,100.0,107.0,98.0,13.3,1505.3,328.1,-0.7,1.8,2469.999,13.33,0.053,296.6
2019-10-12T04:23:30,42.805,6.029,-0.011,0.0,-0.024,102.0,105.0,97.0,13.4,1505.3,325.7,-0.7,1.9,2470.002,13.33,0.011,270.0
2019-10-12T04:26:31,42.805,6.029,-0.034,0.016,-0.058,100.0,106.0,98.0,13.3,1505.3,327.3,-0.7,1.8,2470.007,13.33,0.037,295.2
2019-10-12T04:29:32,42.805,6.029,-0.03,0.03,-0.025,100.0,107.0,97.0,13.4,1505.3,326.5,-0.7,1.9,2470.048,13.33,0.042,315.0
2019-10-12T04:32:33,42.805,6.029,-0.041,0.024,-0.034,101.0,107.0,97.0,13.4,1505.3,324.5,-0.7,1.9,2470.048,13.33,0.047,300.3
2019-10-12T04:35:34,42.805,6.029,-0.016,0.013,-0.055,101.0,105.0,98.0,13.4,1505.3,325.0,-0.7,1.8,2470.02,13.33,0.02,309.1
2019-10-12T04:38:35,42.805,6.029,-0.034,0.013,-0.048,101.0,105.0,97.0,13.4,1505.3,326.3,-0.7,1.8,2470.028,13.33,0.036,290.9
2019-10-12T04:41:36,42.805,6.029,-0.047,0.024,-0.045,101.0,107.0,99.0,13.3,1505.3,324.2,-0.7,1.8,2470.06,13.33,0.052,297.0
2019-10-12T04:44:37,42.805,6.029,-0.013,0.021,-0.022,101.0,106.0,97.0,13.4,1505.3,326.3,-0.7,1.8,2470.026,13.33,0.024,328.2
2019-10-12T04:47:38,42.805,6.029,-0.031,0.044,-0.029,101.0,104.0,98.0,13.4,1505.3,326.7,-0.7,1.8,2470.039,13.33,0.053,324.8
2019-10-12T04:50:39,42.805,6.029,-0.033,0.013,-0.046,101.0,105.0,98.0,13.4,1505.3,327.2,-0.7,1.8,2470.043,13.33,0.035,291.5
2019-10-12T04:53:40,42.805,6.029,-0.023,0.012,-0.056,99.0,107.0,96.0,13.4,1505.3,328.7,-0.7,1.8,2470.079,13.33,0.025,297.6
2019-10-12T04:56:41,42.805,6.029,-0.056,0.014,-0.027,103.0,107.0,98.0,13.3,1505.3,323.3,-0.7,1.8,2470.046,13.33,0.057,284.0
2019-10-12T04:59:42,42.805,6.029,-0.04,0.017,-0.019,100.0,106.0,98.0,13.4,1505.3,325.7,-0.7,1.9,2470.025,13.33,0.043,293.0
2019-10-12T05:02:43,42.805,6.029,-0.048,0.024,-0.011,100.0,106.0,97.0,13.3,1505.3,328.2,-0.7,1.8,2470.076,13.33,0.053,296.6
2019-10-12T05:05:44,42.805,6.029,0.014,0.019,-0.018,100.0,105.0,98.0,13.4,1505.3,327.2,-0.7,1.8,2470.059,13.33,0.023,36.4
2019-10-12T05:08:45,42.805,6.029,-0.016,0.013,-0.005,100.0,105.0,98.0,13.3,1505.3,326.8,-0.7,1.8,2470.065,13.33,0.02,309.1
2019-10-12T05:11:46,42.805,6.029,-0.026,0.013,-0.065,100.0,105.0,98.0,13.3,1505.3,327.6,-0.7,1.8,2470.027,13.33,0.029,296.6
2019-10-12T05:14:47,42.805,6.029,-0.039,0.02,-0.025,101.0,106.0,96.0,13.3,1505.3,327.3,-0.7,1.8,2470.099,13.33,0.043,297.1
2019-10-12T05:17:48,42.805,6.029,-0.075,0.02,-0.088,99.0,107.0,98.0,13.4,1505.3,327.9,-0.7,1.8,2470.06,13.33,0.077,284.9
2019-10-12T05:20:49,42.805,6.029,-0.003,0.011,-0.023,102.0,108.0,97.0,13.4,1505.3,324.3,-0.7,1.8,2470.082,13.33,0.011,344.7
2019-10-12T05:23:50,42.805,6.029,-0.046,0.024,-0.022,100.0,105.0,98.0,13.3,1505.3,327.0,-0.7,1.8,2470.032,13.33,0.051,297.6
2019-10-12T05:26:51,42.805,6.029,-0.014,0.019,-0.045,101.0,106.0,98.0,13.4,1505.3,327.3,-0.7,1.8,2470.025,13.33,0.023,323.6
2019-10-12T05:29:52,42.805,6.029,-0.055,0.029,-0.044,101.0,106.0,98.0,13.3,1505.3,326.5,-0.7,1.8,2470.072,13.33,0.062,297.8
2019-10-12T05:32:53,42.805,6.029,-0.023,0.013,-0.029,100.0,104.0,99.0,13.4,1505.3,325.0,-0.7,1.8,2470.066,13.33,0.026,299.5
2019-10-12T05:35:54,42.805,6.029,-0.051,0.031,-0.051,100.0,106.0,98.0,13.3,1505.3,326.6,-0.7,1.8,2470.057,13.33,0.059,301.3
2019-10-12T05:38:55,42.805,6.029,-0.019,-0.014,-0.007,99.0,106.0,97.0,13.4,1505.3,327.7,-0.7,1.8,2470.089,13.33,0.023,233.6
2019-10-12T05:41:56,42.805,6.029,-0.048,0.009,-0.037,100.0,105.0,99.0,13.4,1505.3,325.3,-0.7,1.8,2470.066,13.33,0.048,280.6
2019-10-12T05:44:57,42.805,6.029,0.024,0.024,0.028,100.0,104.0,98.0,13.4,1505.3,327.4,-0.7,1.8,2470.094,13.33,0.033,45.0
2019-10-12T05:47:58,42.805,6.029,-0.021,0.034,0.002,99.0,106.0,98.0,13.4,1505.3,327.4,-0.7,1.8,2470.083,13.33,0.039,328.3
2019-10-12T05:50:59,42.805,6.029,-0.025,-0.006,-0.056,101.0,104.0,98.0,13.4,1505.3,326.6,-0.7,1.8,2470.096,13.33,0.025,256.5
2019-10-12T05:54:00,42.805,6.029,-0.044,0.035,-0.046,100.0,104.0,98.0,13.4,1505.3,328.0,-0.7,1.9,2470.067,13.33,0.056,308.5
2019-10-12T05:57:01,42.805,6.029,-0.025,0.012,-0.011,100.0,106.0,97.0,13.3,1505.3,324.9,-0.7,1.9,2470.075,13.33,0.027,295.6
2019-10-12T06:00:02,42.805,6.029,-0.021,0.021,-0.008,99.0,106.0,97.0,13.3,1505.3,325.2,-0.7,1.8,2470.113,13.33,0.029,315.0
2019-10-12T06:03:03,42.805,6.029,-0.044,0.046,-0.027,98.0,105.0,99.0,13.4,1505.3,326.1,-0.7,1.9,2470.073,13.33,0.063,316.3
2019-10-12T06:06:04,42.805,6.029,-0.046,0.022,-0.037,100.0,105.0,97.0,13.4,1505.3,327.3,-0.7,1.9,2470.103,13.33,0.05,295.6
2019-10-12T06:09:05,42.805,6.029,-0.047,0.032,-0.069,101.0,105.0,98.0,13.4,1505.3,324.9,-0.7,1.8,2470.074,13.33,0.056,304.2
2019-10-12T06:12:06,42.805,6.029,-0.026,0.008,-0.02,100.0,107.0,97.0,13.4,1505.3,327.3,-0.7,1.9,2470.103,13.33,0.027,287.1
2019-10-12T06:15:07,42.805,6.029,-0.033,0.026,-0.039,101.0,105.0,98.0,13.4,1505.3,327.8,-0.7,1.8,2470.052,13.33,0.042,308.2
2019-10-12T06:18:08,42.805,6.029,-0.021,0.02,-0.026,99.0,105.0,99.0,13.4,1505.3,328.7,-0.7,1.8,2470.05,13.33,0.028,313.6
2019-10-12T06:21:09,42.805,6.029,-0.01,0.01,-0.027,101.0,107.0,97.0,13.4,1505.3,324.4,-0.7,1.9,2470.091,13.33,0.014,315.0
2019-10-12T06:24:10,42.805,6.029,-0.029,0.03,0.0,100.0,104.0,98.0,13.4,1505.3,324.3,-0.7,1.8,2470.094,13.33,0.041,316.0
2019-10-12T06:27:11,42.805,6.029,-0.038,0.031,-0.037,101.0,106.0,97.0,13.4,1505.3,326.6,-0.7,1.9,2470.074,13.33,0.049,309.2
2019-10-12T06:30:12,42.805,6.029,-0.061,0.031,-0.06,101.0,107.0,98.0,13.4,1505.3,327.9,-0.7,1.8,2470.072,13.33,0.068,296.9
2019-10-12T06:33:13,42.805,6.029,-0.056,0.02,-0.065,102.0,106.0,97.0,13.4,1505.3,325.9,-0.7,1.9,2470.056,13.33,0.059,289.6
2019-10-12T06:36:14,42.805,6.029,-0.053,0.009,-0.093,101.0,106.0,98.0,13.3,1505.3,326.9,-0.7,1.8,2470.09,13.33,0.053,279.6
2019-10-12T06:39:15,42.805,6.029,-0.054,0.011,-0.081,101.0,107.0,97.0,13.3,1505.3,323.8,-0.7,1.9,2470.104,13.33,0.055,281.5
2019-10-12T06:42:16,42.805,6.029,-0.04,0.024,-0.042,100.0,106.0,97.0,13.4,1505.3,326.5,-0.7,1.8,2470.081,13.33,0.046,301.0
2019-10-12T06:45:17,42.805,6.029,-0.059,0.022,-0.038,99.0,107.0,99.0,13.4,1505.3,327.2,-0.7,1.8,2470.064,13.33,0.062,290.4
2019-10-12T06:48:18,42.805,6.029,-0.053,0.008,-0.074,100.0,107.0,97.0,13.4,1505.3,326.2,-0.7,1.9,2470.058,13.33,0.053,278.6
2019-10-12T06:51:19,42.805,6.029,-0.079,-0.006,-0.118,100.0,106.0,98.0,13.4,1505.3,323.1,-0.7,1.8,2470.072,13.33,0.079,265.7
2019-10-12T06:54:20,42.805,6.029,-0.057,0.028,-0.02,99.0,104.0,99.0,13.4,1505.3,325.2,-0.7,1.8,2470.075,13.33,0.063,296.2
2019-10-12T06:57:21,42.805,6.029,-0.058,0.011,-0.055,100.0,104.0,97.0,13.4,1505.3,325.7,-0.7,1.8,2470.077,13.33,0.059,280.7
2019-10-12T07:00:22,42.805,6.029,-0.047,0.039,-0.014,99.0,105.0,98.0,13.4,1505.3,325.3,-0.7,1.8,2470.094,13.33,0.061,309.7
2019-10-12T07:03:23,42.805,6.029,-0.061,0.015,-0.072,99.0,106.0,96.0,13.4,1505.3,325.2,-0.7,1.8,2470.141,13.33,0.062,283.8
2019-10-12T07:06:24,42.805,6.029,-0.075,0.008,-0.079,100.0,106.0,97.0,13.4,1505.3,324.3,-0.7,1.8,2470.048,13.33,0.075,276.1
2019-10-12T07:09:25,42.805,6.029,-0.052,0.022,-0.071,101.0,105.0,96.0,13.3,1505.3,326.2,-0.7,1.8,2470.056,13.33,0.056,292.9
2019-10-12T07:12:26,42.805,6.029,-0.065,0.02,-0.051,102.0,106.0,97.0,13.4,1505.3,326.5,-0.6,1.9,2470.063,13.33,0.068,287.1
2019-10-12T07:15:27,42.805,6.029,-0.051,0.016,-0.076,99.0,107.0,98.0,13.4,1505.3,325.3,-0.7,1.8,2470.102,13.33,0.053,287.4
2019-10-12T07:18:28,42.805,6.029,-0.008,0.017,-0.036,100.0,107.0,97.0,13.4,1505.3,324.1,-0.7,1.9,2470.068,13.33,0.018,334.8
2019-10-12T07:21:29,42.805,6.029,-0.06,0.02,-0.061,99.0,105.0,98.0,13.4,1505.3,326.5,-0.7,1.8,2470.083,13.33,0.063,288.4
2019-10-12T07:24:30,42.805,6.029,-0.11,-0.002,-0.132,98.0,106.0,97.0,13.4,1505.3,323.5,-0.7,1.8,2470.107,13.33,0.11,269.0
2019-10-12T07:27:31,42.805,6.029,-0.069,0.017,-0.091,99.0,107.0,98.0,13.4,1505.3,326.3,-0.7,1.9,2470.081,13.33,0.071,283.8
2019-10-12T07:30:32,42.805,6.029,-0.045,0.026,-0.034,99.0,105.0,98.0,13.4,1505.3,326.7,-0.8,1.8,2470.064,13.33,0.051,300.0
2019-10-12T07:33:33,42.805,6.029,-0.066,0.017,-0.086,99.0,106.0,97.0,13.4,1505.3,326.1,-0.7,1.8,2470.086,13.33,0.068,284.4
2019-10-12T07:36:34,42.805,6.029,-0.072,0.036,-0.092,99.0,106.0,98.0,13.3,1505.3,324.8,-0.8,1.9,2470.066,13.33,0.08,296.6
2019-10-12T07:39:35,42.805,6.029,-0.063,0.006,-0.049,100.0,106.0,97.0,13.4,1505.3,327.9,-0.7,1.8,2470.047,13.33,0.063,275.4
2019-10-12T07:42:36,42.805,6.029,-0.048,0.021,-0.073,99.0,106.0,99.0,13.4,1505.3,324.5,-0.7,1.8,2470.041,13.33,0.052,293.6
2019-10-12T07:45:37,42.805,6.029,-0.039,0.019,-0.055,99.0,108.0,96.0,13.4,1505.3,324.5,-0.7,1.8,2470.041,13.33,0.043,296.0
2019-10-12T07:48:38,42.805,6.029,-0.018,-0.005,-0.048,99.0,107.0,97.0,13.4,1505.3,327.0,-0.7,1.9,2470.072,13.33,0.018,254.5
2019-10-12T07:51:39,42.805,6.029,-0.012,0.014,-0.016,100.0,107.0,99.0,13.4,1505.3,324.3,-0.7,1.8,2470.051,13.33,0.018,319.4
2019-10-12T07:54:40,42.805,6.029,-0.032,0.014,-0.043,99.0,107.0,99.0,13.4,1505.3,327.0,-0.7,1.8,2470.06,13.33,0.034,293.6
2019-10-12T07:57:41,42.805,6.029,-0.024,0.021,-0.043,100.0,106.0,97.0,13.4,1505.3,324.0,-0.8,1.8,2470.06,13.33,0.031,311.2
2019-10-12T08:00:42,42.805,6.029,-0.029,0.028,-0.029,99.0,106.0,97.0,13.4,1505.3,324.4,-0.7,1.8,2470.076,13.33,0.04,314.0
2019-10-12T08:03:43,42.805,6.029,-0.053,0.018,-0.083,99.0,106.0,97.0,13.4,1505.3,325.5,-0.7,1.8,2470.062,13.33,0.055,288.8
2019-10-12T08:06:44,42.805,6.029,-0.023,0.024,-0.04,101.0,106.0,97.0,13.3,1505.3,324.5,-0.7,1.8,2470.013,13.33,0.033,316.2
2019-10-12T08:09:45,42.805,6.029,-0.033,0.029,-0.026,100.0,106.0,98.0,13.4,1505.3,326.5,-0.7,1.8,2470.088,13.33,0.043,311.3
2019-10-12T08:12:46,42.805,6.029,-0.038,-0.004,-0.029,99.0,109.0,98.0,13.4,1505.3,327.1,-0.7,1.8,2470.11,13.33,0.038,264.0
2019-10-12T08:15:47,42.805,6.029,-0.009,0.02,-0.034,100.0,107.0,98.0,13.4,1505.3,327.4,-0.7,1.8,2470.039,13.33,0.021,335.8
2019-10-12T08:18:48,42.805,6.029,-0.058,0.03,-0.058,100.0,107.0,98.0,13.4,1505.3,326.7,-0.7,1.8,2470.044,13.33,0.065,297.4
2019-10-12T08:21:49,42.805,6.029,-0.053,0.031,-0.065,101.0,105.0,98.0,13.4,1505.3,325.7,-0.7,1.8,2470.052,13.33,0.061,300.3
2019-10-12T08:24:50,42.805,6.029,-0.001,0.008,-0.007,101.0,107.0,97.0,13.3,1505.3,325.1,-0.7,1.8,2470.043,13.33,0.008,352.9
2019-10-12T08:27:51,42.805,6.029,-0.037,0.008,-0.069,101.0,107.0,97.0,13.4,1505.3,326.8,-0.7,1.8,2470.061,13.33,0.037,282.2
2019-10-12T08:30:52,42.805,6.029,-0.023,0.026,-0.025,101.0,105.0,97.0,13.3,1505.3,326.0,-0.7,1.9,2470.037,13.33,0.034,318.5
2019-10-12T08:33:53,42.805,6.029,-0.029,0.017,-0.027,101.0,106.0,99.0,13.4,1505.3,326.6,-0.7,1.8,2470.104,13.33,0.033,300.4
2019-10-12T08:36:54,42.805,6.029,-0.047,0.03,-0.037,101.0,108.0,97.0,13.3,1505.3,323.0,-0.7,1.9,2470.029,13.33,0.055,302.6
2019-10-12T08:39:55,42.805,6.029,-0.005,0.012,-0.027,101.0,107.0,97.0,13.3,1505.3,328.7,-0.7,1.8,2470.041,13.33,0.013,337.4
2019-10-12T08:42:56,42.805,6.029,-0.03,0.028,-0.036,99.0,109.0,98.0,13.3,1505.3,325.3,-0.7,1.8,2470.065,13.33,0.041,313.0
2019-10-12T08:45:57,42.805,6.029,-0.044,0.046,-0.029,101.0,106.0,97.0,13.4,1505.3,327.1,-0.7,1.8,2470.053,13.33,0.063,316.3
2019-10-12T08:48:58,42.805,6.029,-0.029,0.013,-0.055,101.0,106.0,99.0,13.3,1505.3,325.1,-0.7,1.8,2470.04,13.33,0.031,294.1
2019-10-12T08:51:59,42.805,6.029,-0.05,0.025,-0.03,100.0,106.0,98.0,13.4,1505.3,326.4,-0.7,1.9,2470.03,13.33,0.055,296.6
2019-10-12T08:55:00,42.805,6.029,-0.057,0.027,-0.08,100.0,107.0,97.0,13.4,1505.3,323.5,-0.7,1.8,2470.059,13.33,0.063,295.3
2019-10-12T08:58:01,42.805,6.029,-0.036,0.043,-0.046,100.0,106.0,98.0,13.4,1505.3,326.4,-0.7,1.8,2470.027,13.33,0.056,320.1
2019-10-12T09:01:02,42.805,6.029,-0.032,0.016,-0.069,100.0,106.0,98.0,13.4,1505.3,324.4,-0.7,1.8,2470.065,13.33,0.035,296.6
2019-10-12T09:04:03,42.805,6.029,-0.047,0.016,-0.032,100.0,106.0,98.0,13.3,1505.3,325.4,-0.7,1.8,2470.04,13.33,0.049,288.8
2019-10-12T09:07:04,42.805,6.029,-0.038,0.002,-0.078,101.0,105.0,97.0,13.4,1505.3,323.6,-0.7,1.8,2470.077,13.33,0.038,273.0
2019-10-12T09:10:05,42.805,6.029,-0.056,0.03,-0.062,101.0,105.0,98.0,13.4,1505.3,327.6,-0.7,1.8,2470.057,13.33,0.063,298.2
2019-10-12T09:13:06,42.805,6.029,-0.04,0.009,-0.038,100.0,105.0,99.0,13.3,1505.3,325.1,-0.7,1.9,2470.003,13.33,0.041,282.7
2019-10-12T09:16:07,42.805,6.029,-0.02,0.009,-0.032,101.0,106.0,97.0,13.3,1505.3,326.0,-0.7,1.8,2470.015,13.33,0.021,294.2
2019-10-12T09:19:08,42.805,6.029,-0.07,0.0,-0.05,100.0,105.0,99.0,13.4,1505.3,323.4,-0.7,1.8,2470.042,13.33,0.069,270.0
2019-10-12T09:22:09,42.805,6.029,-0.002,0.022,-0.034,100.0,106.0,99.0,13.3,1505.3,323.8,-0.7,1.8,2469.992,13.33,0.022,354.8
2019-10-12T09:25:10,42.805,6.029,-0.023,0.041,-0.025,100.0,106.0,97.0,13.4,1505.3,323.2,-0.7,1.9,2470.066,13.33,0.047,330.7
2019-10-12T09:28:11,42.805,6.029,-0.041,0.025,-0.027,101.0,107.0,98.0,13.4,1505.3,328.0,-0.7,1.9,2470.049,13.33,0.048,301.4
2019-10-12T09:31:12,42.805,6.029,-0.033,0.024,-0.056,100.0,107.0,98.0,13.3,1505.3,326.4,-0.7,1.8,2470.004,13.33,0.04,306.0
2019-10-12T09:34:13,42.805,6.029,-0.036,0.007,-0.056,99.0,109.0,98.0,13.4,1505.3,324.4,-0.7,1.8,2470.06,13.33,0.036,281.0